Weather History for KPBH - March, 2013

Change the Weather History Date:

Sunday, March 3, 2013

  Actual Average Record
Temperature  
Mean Temperature 12 °F -  
Max Temperature 32 °F 27 °F 41 °F (2001)
Min Temperature -9 °F 10 °F -31 °F (2014)
Degree Days  
Heating Degree Days 54    
Moisture  
Dew Point -4 °F    
Average Humidity 56    
Maximum Humidity 92    
Minimum Humidity 15    
Precipitation  
Precipitation 0.00 in - - ()
Sea Level Pressure  
Sea Level Pressure 30.08 in    
Wind  
Wind Speed 0 mph (NE)    
Max Wind Speed 6 mph    
Max Gust Speed -    
Visibility 10 miles    
Events      
Averages and records for this station are not official NWS values.
T = Trace of Precipitation, MM = Missing Value Source: NWS Daily Summary

Daily Weather History Graph

Daily Weather History Graph

Search for Another Location

Airport or City:

Trip Planner

Search our weather history database for the weather conditions in past years. The results will help you decide how hot, cold, wet, or windy it might be!

Date:

Astronomy

Mar. 03, 2013 Rise Set
Actual Time 6:36 AM CST 5:51 PM CST
Civil Twilight 6:06 AM CST 6:21 PM CST
Nautical Twilight 5:32 AM CST 6:55 PM CST
Astronomical Twilight 4:57 AM CST 7:30 PM CST
Moon No Moon Rise 9:31 AM CST (3/3)
Length of Visible Light 12h 15m
Length of Day
11h 15m
Waning Gibbous, 63% of the Moon is Illuminated
Mar 3
Waning Gibbous
Mar 4
Last Quarter
Mar 11
New
Mar 19
First Quarter
Mar 27
Full

Hourly Weather History & Observations

Time (CST) Temp. Windchill Dew Point Humidity Pressure Visibility Wind Dir Wind Speed Gust Speed Precip Events Conditions
12:15 AM 3.2 °F - -0.4 °F 85% 30.13 in 10.0 mi Calm Calm - N/A   Clear
12:35 AM 1.4 °F - -2.2 °F 85% 30.13 in 10.0 mi Calm Calm - N/A   Clear
12:55 AM 1.4 °F - -2.2 °F 85% 30.13 in 10.0 mi Calm Calm - N/A   Clear
1:15 AM -0.4 °F - -2.2 °F 92% 30.13 in 10.0 mi Calm Calm - N/A   Clear
1:35 AM -0.4 °F - -5.8 °F 78% 30.13 in 10.0 mi Calm Calm - N/A   Clear
2:15 AM -2.2 °F - -5.8 °F 85% 30.12 in 10.0 mi Calm Calm - N/A   Clear
2:35 AM -4.0 °F - -7.6 °F 85% 30.12 in 10.0 mi Calm Calm - N/A   Clear
3:15 AM -5.8 °F - -9.4 °F 84% 30.12 in 10.0 mi Calm Calm - N/A   Clear
3:35 AM -5.8 °F - -9.4 °F 84% 30.12 in 10.0 mi Calm Calm - N/A   Clear
3:55 AM -5.8 °F - -9.4 °F 84% 30.12 in 10.0 mi Calm Calm - N/A   Clear
4:15 AM -5.8 °F - -9.4 °F 84% 30.13 in 7.0 mi Calm Calm - N/A   Clear
4:35 AM -7.6 °F - -11.2 °F 84% 30.13 in 10.0 mi Calm Calm - N/A   Clear
4:55 AM -7.6 °F - -11.2 °F 84% 30.13 in 10.0 mi Calm Calm - N/A   Clear
5:15 AM -7.6 °F - -11.2 °F 84% 30.13 in 10.0 mi Calm Calm - N/A   Clear
5:35 AM -7.6 °F - -11.2 °F 84% 30.13 in 10.0 mi Calm Calm - N/A   Clear
5:55 AM -7.6 °F - -11.2 °F 84% 30.13 in 10.0 mi Calm Calm - N/A   Clear
6:15 AM -9.4 °F - -13.0 °F 84% 30.14 in 10.0 mi Calm Calm - N/A   Clear
6:35 AM -9.4 °F - -13.0 °F 84% 30.14 in 10.0 mi Calm Calm - N/A   Clear
6:55 AM -9.4 °F - -14.8 °F 77% 30.14 in 10.0 mi Calm Calm - N/A   Clear
7:15 AM -9.4 °F - -13.0 °F 84% 30.14 in 10.0 mi Calm Calm - N/A   Clear
7:35 AM -7.6 °F - -11.2 °F 84% 30.13 in 10.0 mi Calm Calm - N/A   Clear
7:55 AM -5.8 °F - -9.4 °F 84% 30.13 in 10.0 mi Calm Calm - N/A   Clear
8:15 AM -2.2 °F - -7.6 °F 78% 30.13 in 10.0 mi Calm Calm - N/A   Clear
8:35 AM 1.4 °F - -5.8 °F 72% 30.13 in 10.0 mi Calm Calm - N/A   Clear
8:55 AM 3.2 °F - -0.4 °F 85% 30.12 in 10.0 mi Calm Calm - N/A   Clear
9:15 AM 8.6 °F - 1.4 °F 73% 30.12 in 10.0 mi Calm Calm - N/A   Clear
9:35 AM 12.2 °F - 5.0 °F 73% 30.12 in 10.0 mi Calm Calm - N/A   Clear
9:55 AM 15.8 °F - 6.8 °F 68% 30.11 in 10.0 mi Calm Calm - N/A   Clear
10:15 AM 19.4 °F - 6.8 °F 58% 30.11 in 10.0 mi Calm Calm - N/A   Clear
10:35 AM 21.2 °F - 8.6 °F 58% 30.10 in 10.0 mi Calm Calm - N/A   Clear
10:55 AM 23.0 °F - 6.8 °F 50% 30.09 in 10.0 mi Calm Calm - N/A   Clear
11:15 AM 24.8 °F - 3.2 °F 40% 30.09 in 10.0 mi Calm Calm - N/A   Clear
11:35 AM 26.6 °F - 1.4 °F 34% 30.08 in 10.0 mi Calm Calm - N/A   Clear
11:55 AM 26.6 °F - 1.4 °F 34% 30.08 in 10.0 mi Calm Calm - N/A   Clear
12:15 PM 26.6 °F - -0.4 °F 31% 30.07 in 10.0 mi Calm Calm - N/A   Clear
12:35 PM 28.4 °F - -0.4 °F 29% 30.06 in 10.0 mi Calm Calm - N/A   Clear
12:55 PM 28.4 °F - -2.2 °F 27% 30.05 in 10.0 mi Calm Calm - N/A   Clear
1:15 PM 28.4 °F - -2.2 °F 27% 30.05 in 10.0 mi Calm Calm - N/A   Clear
1:35 PM 30.2 °F - -2.2 °F 25% 30.04 in 10.0 mi Calm Calm - N/A   Clear
1:55 PM 30.2 °F - -4.0 °F 23% 30.04 in 10.0 mi Calm Calm - N/A   Clear
2:15 PM 30.2 °F 26.7 °F -5.8 °F 21% 30.04 in 10.0 mi NNW 3.5 mph - N/A   Clear
2:35 PM 30.2 °F 25.4 °F -9.4 °F 18% 30.03 in 10.0 mi NNE 4.6 mph - N/A   Clear
2:55 PM 32.0 °F - -7.6 °F 18% 30.03 in 10.0 mi Calm Calm - N/A   Clear
3:15 PM 32.0 °F 27.5 °F -5.8 °F 20% 30.03 in 10.0 mi NNE 4.6 mph - N/A   Clear
3:35 PM 32.0 °F - -7.6 °F 18% 30.03 in 10.0 mi Calm Calm - N/A   Clear
3:55 PM 32.0 °F - -9.4 °F 17% 30.02 in 10.0 mi Calm Calm - N/A   Clear
4:15 PM 32.0 °F - -9.4 °F 17% 30.02 in 10.0 mi Calm Calm - N/A   Clear
4:35 PM 32.0 °F 26.4 °F -11.2 °F 15% 30.03 in 10.0 mi ENE 5.8 mph - N/A   Clear
4:55 PM 32.0 °F 27.5 °F -11.2 °F 15% 30.02 in 10.0 mi East 4.6 mph - N/A   Clear
5:15 PM 30.2 °F - -11.2 °F 16% 30.03 in 10.0 mi Calm Calm - N/A   Clear
5:35 PM 30.2 °F - -11.2 °F 16% 30.03 in 10.0 mi Calm Calm - N/A   Clear
5:55 PM 28.4 °F 24.6 °F -9.4 °F 19% 30.03 in 10.0 mi ENE 3.5 mph - N/A   Clear
6:35 PM 24.8 °F - -4.0 °F 28% 30.03 in 10.0 mi Calm Calm - N/A   Clear
6:55 PM 24.8 °F - -2.2 °F 31% 30.03 in 10.0 mi Calm Calm - N/A   Clear
7:15 PM 23.0 °F 18.4 °F -2.2 °F 33% 30.03 in 10.0 mi ENE 3.5 mph - N/A   Clear
7:35 PM 19.4 °F - -2.2 °F 39% 30.03 in 10.0 mi Calm Calm - N/A   Clear
7:55 PM 17.6 °F - 1.4 °F 49% 30.04 in 10.0 mi Calm Calm - N/A   Clear
8:15 PM 17.6 °F - -0.4 °F 45% 30.05 in 10.0 mi Calm Calm - N/A   Clear
8:35 PM 15.8 °F - 3.2 °F 58% 30.05 in 10.0 mi Calm Calm - N/A   Clear
8:55 PM 15.8 °F - 1.4 °F 53% 30.04 in 10.0 mi Calm Calm - N/A   Clear
9:15 PM 15.8 °F - 3.2 °F 58% 30.04 in 10.0 mi Calm Calm - N/A   Clear
9:35 PM 12.2 °F - 3.2 °F 67% 30.04 in 10.0 mi Calm Calm - N/A   Clear
9:55 PM 12.2 °F - 1.4 °F 62% 30.04 in 10.0 mi Calm Calm - N/A   Clear
10:15 PM 12.2 °F - -0.4 °F 57% 30.04 in 10.0 mi Calm Calm - N/A   Clear
10:35 PM 12.2 °F - 1.4 °F 62% 30.05 in 10.0 mi Calm Calm - N/A   Clear
10:55 PM 10.4 °F - 1.4 °F 67% 30.05 in 10.0 mi Calm Calm - N/A   Clear
11:15 PM 8.6 °F - -0.4 °F 67% 30.05 in 10.0 mi Calm Calm - N/A   Clear
11:35 PM 8.6 °F - 1.4 °F 73% 30.05 in 10.0 mi Calm Calm - N/A   Clear
11:55 PM 8.6 °F - 1.4 °F 73% 30.04 in 10.0 mi Calm Calm - N/A   Clear